2021 DT
ephemeris date magn radius delta ra dec elong phase
Today4 Sep 202626.41.671 AU0.730 AU00h51m+03°51'147.7°18.8°
2021 DT - 2026-09-04
astro.vanbuitenen.nl


 
-1 year
-1 month
-1 day
Now
+1 day
+1 month
+1 year

The interactive orbit chart above shows the body's path through the solar system and its position at the given date. Green and blue lines are shown perpendicular to the ecliptic plane: Green if the path is above the ecliptic plane, blue if it is below. (Left-click and drag to rotate the view; Right-click and drag to move the view; Use scroll wheel to zoom in our out.)

The orbital elements of 2021 DT are:

            e (Eccentricity)                : 0.3428406
            a (Semimajor axis)              : 1.3830323
            i (Inclination)                 : 4.90819
            Ω (Longitude of ascending node) : 2.60542
            ω (Argument of perihelion)      : 210.09274
            M (Mean anomaly)                : 59.13727
            Epoch                           : 2026 Jun 09

            L (Longitude of perihelion)     : 32.60693
            B (Latitude of perihelion)      : -2.45872
            P (Orbital period in years)     : 1.63            
        

The light curve chart below shows the estimated development of the minor planet's magnitude.


The all-sky chart below shows the path of the minor planet over the same period as the light curve. The current position is marked yellow.





The following chart shows the path of the minor planet in the next few days. The field of view is optimized for (~10x50) binoculars and finderscopes.




Ephemerides:
Date       Time       RA (2000)    DEC (2000)    delta   radius  elong  phase   PA    magn
2026-09-04 00:00 UT   00 51 54.8   +03 51 44     0.730    1.671  147.7   18.8   250   26.4 
2026-09-04 04:29 UT   00 51 37.7   +03 50 46     0.729    1.672  147.9   18.7   250   26.4 
2026-09-05 00:00 UT   00 50 22.2   +03 46 27     0.728    1.675  149.0   18.1   250   26.4 
2026-09-06 00:00 UT   00 48 47.0   +03 40 57     0.726    1.678  150.4   17.3   250   26.4 
2026-09-07 00:00 UT   00 47 09.2   +03 35 12     0.724    1.681  151.8   16.5   250   26.4 
2026-09-08 00:00 UT   00 45 29.1   +03 29 15     0.723    1.684  153.2   15.7   250   26.3 
2026-09-09 00:00 UT   00 43 46.8   +03 23 05     0.721    1.687  154.6   14.9   250   26.3 
2026-09-10 00:00 UT   00 42 02.3   +03 16 43     0.720    1.691  156.0   14.0   250   26.3 
2026-09-11 00:00 UT   00 40 15.9   +03 10 10     0.719    1.694  157.4   13.2   250   26.2 
2026-09-12 00:00 UT   00 38 27.7   +03 03 26     0.719    1.697  158.8   12.4   249   26.2 
2026-09-13 00:00 UT   00 36 37.8   +02 56 33     0.718    1.700  160.3   11.5   249   26.2 
2026-09-14 00:00 UT   00 34 46.5   +02 49 30     0.718    1.703  161.7   10.7   249   26.2 
2026-09-15 00:00 UT   00 32 53.8   +02 42 20     0.718    1.706  163.2    9.8   249   26.1 
2026-09-16 00:00 UT   00 31 00.0   +02 35 03     0.718    1.709  164.6    9.0   249   26.1 
2026-09-17 00:00 UT   00 29 05.3   +02 27 39     0.719    1.712  166.1    8.1   249   26.1 
2026-09-18 00:00 UT   00 27 09.8   +02 20 10     0.720    1.715  167.6    7.2   249   26.0 
2026-09-19 00:00 UT   00 25 13.7   +02 12 36     0.720    1.718  169.0    6.4   249   26.0 
2026-09-20 00:00 UT   00 23 17.2   +02 04 59     0.722    1.720  170.5    5.5   249   26.0 
2026-09-21 00:00 UT   00 21 20.5   +01 57 19     0.723    1.723  172.0    4.7   249   25.9 
2026-09-22 00:00 UT   00 19 23.8   +01 49 38     0.725    1.726  173.5    3.8   249   25.9 


    Terminology:
            
    delta:  distance between minor planet and earth in AU
    radius: distance between minor planet and sun in AU
    magn:   magnitude (brightness) estimate    
    ra:     right ascension in hours (24h = 360deg)
    dec:    declination in degrees
    elong:  elongation in degrees (angle sun-earth-minor planet)    
    phase:  phase angle in degrees (angle sun-minor planet-earth)        
    AU:     Astronomical Unit (mean distance between earth and sun: 149597870.7 km
    

Orbital elements provided by the MPC (Minor Planet Center).
Calculations by a modified version of AAPlus, a C# implementation of the AA+ project by PJ Naughter from the algorithms presented in the book "Astronomical Algorithms" by Jean Meeus.
NGC2000 dso catalog and star labels from VizieR as provided by the Strasbourg astronomical Data Center.
Tycho2 catalog from the ESO archive.